TimeEDT,TemperatureF,Dew PointF,Humidity,Sea Level PressureIn,VisibilityMPH,Wind Direction,Wind SpeedMPH,Gust SpeedMPH,PrecipitationIn,Events,Conditions,WindDirDegrees,DateUTC
12:15 AM,44.6,21.2,39,30.17,10.0,NE,3.5,-,N/A,,Clear,40,2013-04-06 04:15:00
12:35 AM,44.6,21.2,39,30.18,10.0,NE,3.5,-,N/A,,Clear,40,2013-04-06 04:35:00
12:55 AM,42.8,21.2,42,30.18,10.0,NE,3.5,-,N/A,,Clear,50,2013-04-06 04:55:00
1:15 AM,41.0,23.0,49,30.18,10.0,Calm,Calm,-,N/A,,Clear,0,2013-04-06 05:15:00
1:35 AM,41.0,21.2,45,30.19,10.0,NE,3.5,-,N/A,,Clear,50,2013-04-06 05:35:00
1:55 AM,39.2,23.0,52,30.19,10.0,East,3.5,-,N/A,,Clear,80,2013-04-06 05:55:00
2:15 AM,37.4,23.0,56,30.19,10.0,Calm,Calm,-,N/A,,Clear,0,2013-04-06 06:15:00
2:35 AM,37.4,23.0,56,30.19,10.0,Calm,Calm,-,N/A,,Clear,0,2013-04-06 06:35:00
2:55 AM,35.6,23.0,60,30.19,10.0,NE,3.5,-,N/A,,Clear,50,2013-04-06 06:55:00
3:15 AM,35.6,23.0,60,30.21,10.0,Calm,Calm,-,N/A,,Clear,0,2013-04-06 07:15:00
3:35 AM,33.8,23.0,65,30.21,10.0,Calm,Calm,-,N/A,,Clear,0,2013-04-06 07:35:00
3:55 AM,33.8,23.0,65,30.21,10.0,Calm,Calm,-,N/A,,Clear,0,2013-04-06 07:55:00
4:15 AM,33.8,23.0,65,30.21,10.0,Calm,Calm,-,N/A,,Clear,0,2013-04-06 08:15:00
4:35 AM,33.8,23.0,65,30.21,10.0,Calm,Calm,-,N/A,,Clear,0,2013-04-06 08:35:00
4:55 AM,32.0,24.8,75,30.21,10.0,Calm,Calm,-,N/A,,Clear,0,2013-04-06 08:55:00
5:15 AM,32.0,24.8,75,30.22,10.0,Calm,Calm,-,N/A,,Clear,0,2013-04-06 09:15:00
5:35 AM,32.0,23.0,69,30.22,10.0,Calm,Calm,-,N/A,,Clear,0,2013-04-06 09:35:00
5:55 AM,32.0,23.0,69,30.22,10.0,Calm,Calm,-,N/A,,Clear,0,2013-04-06 09:55:00
6:15 AM,32.0,24.8,75,30.23,10.0,Calm,Calm,-,N/A,,Clear,0,2013-04-06 10:15:00
6:35 AM,32.0,23.0,69,30.24,10.0,Calm,Calm,-,N/A,,Clear,0,2013-04-06 10:35:00
6:55 AM,30.2,23.0,75,30.25,10.0,Calm,Calm,-,N/A,,Clear,0,2013-04-06 10:55:00
7:15 AM,32.0,23.0,69,30.26,10.0,Calm,Calm,-,N/A,,Clear,0,2013-04-06 11:15:00
7:35 AM,32.0,24.8,75,30.26,10.0,East,3.5,-,N/A,,Clear,90,2013-04-06 11:35:00
7:55 AM,32.0,26.6,80,30.27,10.0,Calm,Calm,-,N/A,,Clear,0,2013-04-06 11:55:00
8:15 AM,33.8,26.6,75,30.27,10.0,ENE,3.5,-,N/A,,Clear,60,2013-04-06 12:15:00
8:35 AM,37.4,24.8,60,30.27,10.0,East,3.5,-,N/A,,Clear,80,2013-04-06 12:35:00
8:55 AM,41.0,23.0,49,30.27,10.0,East,8.1,-,N/A,,Clear,80,2013-04-06 12:55:00
9:15 AM,42.8,21.2,42,30.27,10.0,East,5.8,-,N/A,,Clear,80,2013-04-06 13:15:00
9:35 AM,44.6,21.2,39,30.27,10.0,East,5.8,-,N/A,,Clear,90,2013-04-06 13:35:00
9:55 AM,46.4,21.2,37,30.27,10.0,Calm,Calm,-,N/A,,Clear,0,2013-04-06 13:55:00
10:15 AM,46.4,21.2,37,30.27,10.0,Calm,Calm,-,N/A,,Clear,0,2013-04-06 14:15:00
10:35 AM,50.0,21.2,32,30.26,10.0,ENE,4.6,-,N/A,,Clear,70,2013-04-06 14:35:00
10:55 AM,51.8,21.2,30,30.27,10.0,Calm,Calm,-,N/A,,Clear,0,2013-04-06 14:55:00
11:15 AM,53.6,19.4,26,30.26,10.0,SSE,3.5,-,N/A,,Clear,150,2013-04-06 15:15:00
11:35 AM,53.6,19.4,26,30.25,10.0,Calm,Calm,-,N/A,,Clear,0,2013-04-06 15:35:00
11:55 AM,55.4,19.4,25,30.25,10.0,East,6.9,-,N/A,,Clear,90,2013-04-06 15:55:00
12:15 PM,57.2,17.6,21,30.24,10.0,East,6.9,-,N/A,,Clear,90,2013-04-06 16:15:00
12:35 PM,59.0,17.6,20,30.22,10.0,East,8.1,-,N/A,,Clear,80,2013-04-06 16:35:00
12:55 PM,60.8,19.4,20,30.21,10.0,ENE,4.6,-,N/A,,Clear,60,2013-04-06 16:55:00
1:15 PM,60.8,17.6,19,30.20,10.0,Calm,Calm,-,N/A,,Clear,0,2013-04-06 17:15:00
1:35 PM,62.6,14.0,15,30.19,10.0,East,4.6,-,N/A,,Clear,80,2013-04-06 17:35:00
1:55 PM,62.6,14.0,15,30.17,10.0,SE,3.5,-,N/A,,Clear,140,2013-04-06 17:55:00
2:15 PM,64.4,14.0,14,30.16,10.0,South,4.6,-,N/A,,Clear,180,2013-04-06 18:15:00
2:35 PM,64.4,15.8,15,30.15,10.0,SSW,5.8,-,N/A,,Clear,200,2013-04-06 18:35:00
2:55 PM,64.4,14.0,14,30.14,10.0,South,9.2,-,N/A,,Clear,190,2013-04-06 18:55:00
3:15 PM,64.4,12.2,13,30.13,10.0,South,8.1,-,N/A,,Clear,170,2013-04-06 19:15:00
3:35 PM,66.2,14.0,13,30.12,10.0,SSE,5.8,-,N/A,,Clear,160,2013-04-06 19:35:00
3:55 PM,68.0,14.0,12,30.10,10.0,ESE,5.8,-,N/A,,Clear,120,2013-04-06 19:55:00
4:15 PM,66.2,14.0,13,30.10,10.0,ESE,6.9,-,N/A,,Clear,120,2013-04-06 20:15:00
4:35 PM,66.2,17.6,15,30.09,10.0,Calm,Calm,-,N/A,,Clear,0,2013-04-06 20:35:00
4:55 PM,66.2,14.0,13,30.08,10.0,Calm,Calm,-,N/A,,Clear,0,2013-04-06 20:55:00
5:15 PM,68.0,14.0,12,30.07,10.0,ESE,3.5,-,N/A,,Clear,120,2013-04-06 21:15:00
5:35 PM,68.0,14.0,12,30.07,10.0,ESE,3.5,-,N/A,,Clear,120,2013-04-06 21:35:00
5:55 PM,68.0,17.6,15,30.07,10.0,SSW,3.5,-,N/A,,Clear,210,2013-04-06 21:55:00
6:15 PM,68.0,17.6,15,30.06,10.0,SE,3.5,-,N/A,,Clear,130,2013-04-06 22:15:00
6:35 PM,66.2,17.6,15,30.06,10.0,ESE,5.8,-,N/A,,Clear,120,2013-04-06 22:35:00
6:55 PM,66.2,19.4,17,30.05,10.0,ESE,3.5,-,N/A,,Clear,110,2013-04-06 22:55:00
7:15 PM,64.4,19.4,18,30.04,10.0,Calm,Calm,-,N/A,,Clear,0,2013-04-06 23:15:00
7:35 PM,62.6,19.4,19,30.04,10.0,Calm,Calm,-,N/A,,Clear,0,2013-04-06 23:35:00
7:55 PM,60.8,26.6,27,30.03,10.0,Calm,Calm,-,N/A,,Clear,0,2013-04-06 23:55:00
8:15 PM,59.0,26.6,29,30.03,10.0,Calm,Calm,-,N/A,,Clear,0,2013-04-07 00:15:00
8:35 PM,57.2,26.6,31,30.02,10.0,Calm,Calm,-,N/A,,Clear,0,2013-04-07 00:35:00
8:55 PM,57.2,21.2,25,30.02,10.0,Calm,Calm,-,N/A,,Clear,0,2013-04-07 00:55:00
9:15 PM,55.4,23.0,29,30.02,10.0,Calm,Calm,-,N/A,,Clear,0,2013-04-07 01:15:00
9:35 PM,55.4,23.0,29,30.01,10.0,Calm,Calm,-,N/A,,Clear,0,2013-04-07 01:35:00
9:55 PM,55.4,24.8,31,30.00,10.0,East,4.6,-,N/A,,Clear,100,2013-04-07 01:55:00
10:15 PM,59.0,23.0,25,29.99,10.0,East,3.5,-,N/A,,Clear,100,2013-04-07 02:15:00
10:35 PM,57.2,28.4,33,30.00,10.0,Calm,Calm,-,N/A,,Clear,0,2013-04-07 02:35:00
10:55 PM,53.6,30.2,41,30.00,10.0,Calm,Calm,-,N/A,,Clear,0,2013-04-07 02:55:00
11:15 PM,51.8,32.0,47,30.00,10.0,Calm,Calm,-,N/A,,Clear,0,2013-04-07 03:15:00
11:35 PM,53.6,32.0,44,29.99,10.0,Calm,Calm,-,N/A,,Clear,0,2013-04-07 03:35:00
11:55 PM,51.8,30.2,44,29.99,10.0,Calm,Calm,-,N/A,,Clear,0,2013-04-07 03:55:00